TimeEST,TemperatureF,Dew PointF,Humidity,Sea Level PressureIn,VisibilityMPH,Wind Direction,Wind SpeedMPH,Gust SpeedMPH,PrecipitationIn,Events,Conditions,WindDirDegrees,DateUTC
12:35 AM,39.2,35.6,87,-9999,-9999.0,North,5.8,-,N/A,,Unknown,10,2012-11-17 05:35:00
12:55 AM,39.2,35.6,87,-9999,-9999.0,NE,6.9,-,N/A,,Unknown,40,2012-11-17 05:55:00
1:15 AM,37.4,35.6,93,-9999,-9999.0,NNE,6.9,-,N/A,,Unknown,30,2012-11-17 06:15:00
1:35 AM,37.4,35.6,93,-9999,-9999.0,NNE,6.9,-,N/A,,Unknown,20,2012-11-17 06:35:00
1:55 AM,37.4,35.6,93,-9999,-9999.0,North,10.4,16.1,N/A,,Unknown,10,2012-11-17 06:55:00
2:15 AM,37.4,35.6,93,-9999,-9999.0,North,11.5,-,N/A,,Unknown,10,2012-11-17 07:15:00
2:35 AM,37.4,35.6,93,-9999,-9999.0,North,10.4,-,N/A,,Unknown,10,2012-11-17 07:35:00
2:55 AM,37.4,35.6,93,-9999,-9999.0,NNE,10.4,-,N/A,,Unknown,20,2012-11-17 07:55:00
3:15 AM,37.4,35.6,93,-9999,-9999.0,NNE,13.8,-,N/A,,Unknown,20,2012-11-17 08:15:00
3:35 AM,37.4,35.6,93,-9999,-9999.0,NNE,13.8,18.4,N/A,,Unknown,20,2012-11-17 08:35:00
3:55 AM,37.4,35.6,93,-9999,-9999.0,North,11.5,18.4,N/A,,Unknown,10,2012-11-17 08:55:00
4:15 AM,37.4,33.8,87,-9999,-9999.0,North,8.1,-,N/A,,Unknown,360,2012-11-17 09:15:00
4:55 AM,35.6,33.8,93,-9999,-9999.0,North,17.3,21.9,N/A,,Unknown,10,2012-11-17 09:55:00
5:15 AM,37.4,33.8,87,-9999,-9999.0,NNE,17.3,26.5,N/A,,Unknown,20,2012-11-17 10:15:00
5:35 AM,35.6,33.8,93,-9999,-9999.0,NNE,16.1,23.0,N/A,,Unknown,20,2012-11-17 10:35:00
5:55 AM,35.6,33.8,93,-9999,-9999.0,North,12.7,23.0,N/A,,Unknown,10,2012-11-17 10:55:00
6:15 AM,35.6,33.8,93,-9999,-9999.0,NNE,13.8,19.6,N/A,,Unknown,20,2012-11-17 11:15:00
6:35 AM,35.6,33.8,93,-9999,-9999.0,NNE,10.4,16.1,N/A,,Unknown,20,2012-11-17 11:35:00
6:55 AM,35.6,32.0,87,-9999,-9999.0,North,10.4,-,N/A,,Unknown,10,2012-11-17 11:55:00
7:15 AM,35.6,33.8,93,-9999,-9999.0,North,11.5,17.3,N/A,,Unknown,10,2012-11-17 12:15:00
7:35 AM,37.4,33.8,87,-9999,-9999.0,NNE,16.1,25.3,N/A,,Unknown,20,2012-11-17 12:35:00
7:55 AM,39.2,33.8,81,-9999,-9999.0,NNE,18.4,27.6,N/A,,Unknown,30,2012-11-17 12:55:00
8:15 AM,39.2,33.8,81,-9999,-9999.0,NNE,19.6,26.5,N/A,,Unknown,30,2012-11-17 13:15:00
8:35 AM,41.0,35.6,81,-9999,-9999.0,NNE,19.6,28.8,N/A,,Unknown,30,2012-11-17 13:35:00
8:55 AM,42.8,35.6,76,-9999,-9999.0,NNE,18.4,29.9,N/A,,Unknown,30,2012-11-17 13:55:00
9:15 AM,44.6,35.6,71,-9999,-9999.0,NE,16.1,-,N/A,,Unknown,40,2012-11-17 14:15:00
9:35 AM,46.4,32.0,57,-9999,-9999.0,NE,26.5,41.4,N/A,,Unknown,40,2012-11-17 14:35:00
9:55 AM,48.2,30.2,50,-9999,-9999.0,NE,28.8,41.4,N/A,,Unknown,50,2012-11-17 14:55:00
10:15 AM,48.2,30.2,50,-9999,-9999.0,NE,26.5,42.6,N/A,,Unknown,50,2012-11-17 15:15:00
10:35 AM,48.2,30.2,50,-9999,-9999.0,NE,27.6,36.8,N/A,,Unknown,40,2012-11-17 15:35:00
10:55 AM,50.0,32.0,50,-9999,-9999.0,NE,21.9,33.4,N/A,,Unknown,40,2012-11-17 15:55:00
11:15 AM,51.8,32.0,47,-9999,-9999.0,NNE,27.6,34.5,N/A,,Unknown,30,2012-11-17 16:15:00
11:35 AM,51.8,30.2,44,-9999,-9999.0,NNE,23.0,31.1,N/A,,Unknown,30,2012-11-17 16:35:00
12:55 PM,55.4,28.4,36,-9999,-9999.0,NNE,24.2,41.4,N/A,,Unknown,30,2012-11-17 17:55:00
1:15 PM,57.2,28.4,33,-9999,-9999.0,NNE,20.7,33.4,N/A,,Unknown,20,2012-11-17 18:15:00
1:35 PM,55.4,28.4,36,30.38,-9999.0,North,17.3,32.2,N/A,,Unknown,10,2012-11-17 18:35:00
1:55 PM,57.2,30.2,36,30.38,5.0,NE,23.0,34.5,N/A,,Haze,40,2012-11-17 18:55:00
2:15 PM,57.2,30.2,36,30.37,10.0,NNE,26.5,33.4,N/A,,Clear,30,2012-11-17 19:15:00
2:55 PM,57.2,32.0,38,30.38,10.0,NNE,23.0,34.5,N/A,,Clear,30,2012-11-17 19:55:00
3:15 PM,55.4,32.0,41,30.38,9.0,NE,23.0,38.0,N/A,,Clear,40,2012-11-17 20:15:00
3:35 PM,55.4,33.8,44,30.38,10.0,NE,24.2,32.2,N/A,,Clear,40,2012-11-17 20:35:00
3:55 PM,53.6,35.6,51,30.39,10.0,NE,16.1,28.8,N/A,,Clear,50,2012-11-17 20:55:00
4:15 PM,53.6,35.6,51,30.39,9.0,NE,19.6,24.2,N/A,,Clear,40,2012-11-17 21:15:00
4:35 PM,53.6,35.6,51,30.39,9.0,NNE,20.7,25.3,N/A,,Clear,30,2012-11-17 21:35:00
4:55 PM,51.8,33.8,50,30.39,10.0,NNE,18.4,27.6,N/A,,Clear,20,2012-11-17 21:55:00
5:15 PM,51.8,32.0,47,30.39,10.0,NNE,18.4,28.8,N/A,,Clear,30,2012-11-17 22:15:00
5:35 PM,51.8,30.2,44,30.40,10.0,NNE,19.6,27.6,N/A,,Clear,20,2012-11-17 22:35:00
5:55 PM,51.8,28.4,41,30.40,10.0,NNE,19.6,28.8,N/A,,Clear,30,2012-11-17 22:55:00
6:15 PM,51.8,28.4,41,30.41,10.0,NNE,20.7,26.5,N/A,,Clear,30,2012-11-17 23:15:00
6:35 PM,50.0,28.4,43,30.41,10.0,NNE,23.0,28.8,N/A,,Clear,30,2012-11-17 23:35:00
6:55 PM,50.0,28.4,43,30.41,10.0,NNE,18.4,23.0,N/A,,Clear,30,2012-11-17 23:55:00
7:15 PM,50.0,30.2,47,30.41,10.0,NNE,20.7,29.9,N/A,,Scattered Clouds,30,2012-11-18 00:15:00
7:35 PM,50.0,28.4,43,30.41,10.0,NNE,24.2,33.4,N/A,,Partly Cloudy,30,2012-11-18 00:35:00
7:55 PM,50.0,28.4,43,30.41,10.0,NNE,24.2,33.4,N/A,,Mostly Cloudy,30,2012-11-18 00:55:00
8:15 PM,50.0,28.4,43,30.41,10.0,NE,19.6,33.4,N/A,,Mostly Cloudy,40,2012-11-18 01:15:00
8:35 PM,50.0,30.2,47,30.41,10.0,NNE,23.0,28.8,N/A,,Mostly Cloudy,30,2012-11-18 01:35:00
8:55 PM,50.0,30.2,47,30.41,10.0,NNE,20.7,35.7,N/A,,Overcast,20,2012-11-18 01:55:00
9:15 PM,50.0,30.2,47,30.41,10.0,NNE,20.7,36.8,N/A,,Overcast,20,2012-11-18 02:15:00
9:35 PM,50.0,30.2,47,30.41,10.0,NNE,23.0,31.1,N/A,,Overcast,30,2012-11-18 02:35:00
9:55 PM,48.2,32.0,54,30.40,10.0,NNE,25.3,41.4,N/A,,Overcast,30,2012-11-18 02:55:00
10:15 PM,48.2,32.0,54,30.41,10.0,NNE,27.6,39.1,N/A,,Overcast,30,2012-11-18 03:15:00
10:35 PM,48.2,32.0,54,30.41,10.0,NNE,23.0,35.7,N/A,,Overcast,30,2012-11-18 03:35:00
10:55 PM,48.2,33.8,58,30.41,9.0,NNE,26.5,40.3,N/A,,Overcast,30,2012-11-18 03:55:00
11:15 PM,48.2,33.8,58,30.41,10.0,NNE,25.3,34.5,N/A,,Mostly Cloudy,30,2012-11-18 04:15:00
11:35 PM,48.2,33.8,58,30.41,10.0,NNE,18.4,31.1,N/A,,Scattered Clouds,30,2012-11-18 04:35:00
11:55 PM,48.2,33.8,58,30.41,10.0,NNE,20.7,29.9,N/A,,Mostly Cloudy,30,2012-11-18 04:55:00